Time,TemperatureF,DewpointF,PressureIn,WindDirection,WindDirectionDegrees,WindSpeedMPH,WindSpeedGustMPH,Humidity,HourlyPrecipIn,Conditions,Clouds,dailyrainin,SoftwareType,DateUTC
2013-10-15 01:21:00,67.0,30.0,29.75,NNE,14,26.0,36.0,25,0.00,,,0.00,,2013-10-15 08:21:00,
2013-10-15 01:32:00,67.0,30.0,29.75,NNE,14,26.0,36.0,25,0.00,,,0.00,,2013-10-15 08:32:00,
2013-10-15 01:42:00,67.0,30.0,29.75,NNE,14,26.0,36.0,25,0.00,,,0.00,,2013-10-15 08:42:00,
2013-10-15 01:52:00,67.0,30.0,29.75,NNE,14,26.0,36.0,25,0.00,,,0.00,,2013-10-15 08:52:00,
2013-10-15 02:02:00,67.0,30.0,29.75,NNE,14,26.0,36.0,25,0.00,,,0.00,,2013-10-15 09:02:00,
2013-10-15 03:12:00,67.0,30.0,29.72,NNE,30,27.0,36.0,25,0.00,,,0.00,,2013-10-15 10:12:00,
2013-10-15 03:23:00,67.0,30.0,29.72,NNE,30,27.0,36.0,25,0.00,,,0.00,,2013-10-15 10:23:00,
2013-10-15 03:32:00,67.0,30.0,29.72,NNE,30,27.0,36.0,25,0.00,,,0.00,,2013-10-15 10:32:00,
2013-10-15 03:42:00,67.0,30.0,29.72,NNE,30,27.0,36.0,25,0.00,,,0.00,,2013-10-15 10:42:00,
2013-10-15 03:53:00,67.0,30.0,29.71,NNE,23,24.0,36.0,25,0.00,,,0.00,,2013-10-15 10:53:00,
2013-10-15 04:22:00,67.0,30.0,29.70,NNE,22,30.0,36.0,25,0.00,,,0.00,,2013-10-15 11:22:00,
2013-10-15 04:33:00,67.0,30.0,29.70,NNE,22,30.0,36.0,25,0.00,,,0.00,,2013-10-15 11:33:00,
2013-10-15 04:42:00,67.0,30.0,29.70,NNE,22,30.0,36.0,25,0.00,,,0.00,,2013-10-15 11:42:00,
2013-10-15 04:52:00,67.0,30.0,29.70,NNE,14,25.0,33.0,25,0.00,,,0.00,,2013-10-15 11:52:00,
2013-10-15 05:01:00,67.0,30.0,29.70,NNE,14,25.0,33.0,25,0.00,,,0.00,,2013-10-15 12:01:00,
2013-10-15 05:21:00,67.0,30.0,29.70,NNE,21,28.0,37.0,25,0.00,,,0.00,,2013-10-15 12:21:00,
2013-10-15 05:32:00,67.0,30.0,29.70,NNE,21,28.0,37.0,25,0.00,,,0.00,,2013-10-15 12:32:00,
2013-10-15 05:42:00,67.0,30.0,29.70,NNE,21,28.0,37.0,25,0.00,,,0.00,,2013-10-15 12:42:00,
2013-10-15 05:52:00,67.0,30.0,29.70,NNE,21,28.0,37.0,25,0.00,,,0.00,,2013-10-15 12:52:00,
2013-10-15 07:12:00,67.0,30.0,29.71,North,8,21.0,36.0,25,0.00,,,0.00,,2013-10-15 14:12:00,
2013-10-15 07:21:00,67.0,30.0,29.71,North,8,21.0,36.0,25,0.00,,,0.00,,2013-10-15 14:21:00,
2013-10-15 07:32:00,67.0,30.0,29.71,North,8,21.0,36.0,25,0.00,,,0.00,,2013-10-15 14:32:00,
2013-10-15 08:22:00,66.0,29.0,29.73,NE,43,26.0,39.0,25,0.00,,,0.00,,2013-10-15 15:22:00,
2013-10-15 08:33:00,66.0,29.0,29.73,NE,43,26.0,39.0,25,0.00,,,0.00,,2013-10-15 15:33:00,
2013-10-15 08:43:00,66.0,29.0,29.73,NE,43,26.0,39.0,25,0.00,,,0.00,,2013-10-15 15:43:00,
2013-10-15 08:53:00,66.0,29.0,29.73,NNE,24,27.0,36.0,25,0.00,,,0.00,,2013-10-15 15:53:00,
2013-10-15 09:22:00,67.0,31.0,29.75,NNW,336,23.0,35.0,26,0.00,,,0.00,,2013-10-15 16:22:00,
2013-10-15 09:33:00,67.0,31.0,29.75,NNW,336,23.0,35.0,26,0.00,,,0.00,,2013-10-15 16:33:00,
2013-10-15 09:42:00,67.0,31.0,29.75,NNW,336,23.0,35.0,26,0.00,,,0.00,,2013-10-15 16:42:00,
2013-10-15 09:53:00,67.0,31.0,29.75,NNW,336,23.0,35.0,26,0.00,,,0.00,,2013-10-15 16:53:00,
2013-10-15 10:22:00,68.0,31.0,29.75,North,4,12.0,35.0,25,0.00,,,0.00,,2013-10-15 17:22:00,
2013-10-15 10:32:00,68.0,31.0,29.75,North,4,12.0,35.0,25,0.00,,,0.00,,2013-10-15 17:32:00,
2013-10-15 10:42:00,68.0,31.0,29.75,North,4,12.0,35.0,25,0.00,,,0.00,,2013-10-15 17:42:00,
2013-10-15 10:53:00,69.0,31.0,29.75,NNE,16,17.0,29.0,24,0.00,,,0.00,,2013-10-15 17:53:00,
2013-10-15 11:02:00,69.0,31.0,29.75,NNE,16,17.0,29.0,24,0.00,,,0.00,,2013-10-15 18:02:00,
2013-10-15 11:12:00,69.0,31.0,29.75,NNE,16,17.0,29.0,24,0.00,,,0.00,,2013-10-15 18:12:00,
2013-10-15 11:21:00,69.0,31.0,29.75,NNE,16,17.0,29.0,24,0.00,,,0.00,,2013-10-15 18:21:00,
2013-10-15 11:42:00,70.0,30.0,29.75,ENE,59,6.0,20.0,23,0.00,,,0.00,,2013-10-15 18:42:00,
2013-10-15 11:52:00,72.0,31.0,29.75,NE,54,11.0,25.0,22,0.00,,,0.00,,2013-10-15 18:52:00,
2013-10-15 12:21:00,72.0,30.0,29.74,ENE,78,8.0,24.0,21,0.00,,,0.00,,2013-10-15 19:21:00,
2013-10-15 12:42:00,72.0,30.0,29.74,ENE,78,8.0,24.0,21,0.00,,,0.00,,2013-10-15 19:42:00,
2013-10-15 12:52:00,73.0,30.0,29.73,NE,48,13.0,23.0,20,0.00,,,0.00,,2013-10-15 19:52:00,
2013-10-15 13:02:00,73.0,30.0,29.73,NE,48,13.0,23.0,20,0.00,,,0.00,,2013-10-15 20:02:00,
2013-10-15 13:12:00,73.0,30.0,29.73,NE,48,13.0,23.0,20,0.00,,,0.00,,2013-10-15 20:12:00,
2013-10-15 13:21:00,73.0,30.0,29.73,NE,48,13.0,23.0,20,0.00,,,0.00,,2013-10-15 20:21:00,
2013-10-15 14:22:00,76.0,31.0,29.70,ESE,115,6.0,18.0,19,0.00,,,0.00,,2013-10-15 21:22:00,
2013-10-15 14:34:00,76.0,31.0,29.70,ESE,115,6.0,18.0,19,0.00,,,0.00,,2013-10-15 21:34:00,
2013-10-15 14:44:00,76.0,31.0,29.70,ESE,115,6.0,18.0,19,0.00,,,0.00,,2013-10-15 21:44:00,
2013-10-15 14:54:00,77.0,30.0,29.70,ENE,75,3.0,12.0,18,0.00,,,0.00,,2013-10-15 21:54:00,
2013-10-15 15:04:00,77.0,30.0,29.70,ENE,75,3.0,12.0,18,0.00,,,0.00,,2013-10-15 22:04:00,
2013-10-15 15:23:00,75.0,37.0,29.69,South,172,4.0,11.0,25,0.00,,,0.00,,2013-10-15 22:23:00,
2013-10-15 15:43:00,75.0,37.0,29.69,South,172,4.0,11.0,25,0.00,,,0.00,,2013-10-15 22:43:00,
2013-10-15 15:53:00,74.0,35.0,29.69,SW,226,4.0,11.0,24,0.00,,,0.00,,2013-10-15 22:53:00,
2013-10-15 16:12:00,72.0,34.0,29.69,South,174,7.0,11.0,25,0.00,,,0.00,,2013-10-15 23:12:00,
2013-10-15 16:22:00,72.0,34.0,29.69,South,174,7.0,11.0,25,0.00,,,0.00,,2013-10-15 23:22:00,
2013-10-15 16:34:00,72.0,34.0,29.69,South,174,7.0,11.0,25,0.00,,,0.00,,2013-10-15 23:34:00,
2013-10-15 16:52:00,71.0,33.0,29.69,South,178,8.0,14.0,25,0.00,,,0.00,,2013-10-15 23:52:00,
2013-10-15 17:12:00,70.0,33.0,29.70,South,175,4.0,9.0,25,0.00,,,0.00,,2013-10-16 00:12:00,
2013-10-15 17:22:00,70.0,33.0,29.69,South,191,8.0,14.0,25,0.00,,,0.00,,2013-10-16 00:22:00,
2013-10-15 17:33:00,70.0,33.0,29.69,South,191,8.0,14.0,25,0.00,,,0.00,,2013-10-16 00:33:00,
2013-10-15 17:42:00,70.0,33.0,29.69,South,191,8.0,14.0,25,0.00,,,0.00,,2013-10-16 00:42:00,
2013-10-15 17:52:00,69.0,33.0,29.70,ENE,65,4.0,9.0,26,0.00,,,0.00,,2013-10-16 00:52:00,
2013-10-15 18:22:00,69.0,32.0,29.70,North,0,0.0,5.0,25,0.00,,,0.00,,2013-10-16 01:22:00,
2013-10-15 18:32:00,69.0,32.0,29.70,North,0,0.0,5.0,25,0.00,,,0.00,,2013-10-16 01:32:00,
2013-10-15 18:42:00,69.0,32.0,29.70,North,0,0.0,5.0,25,0.00,,,0.00,,2013-10-16 01:42:00,
2013-10-15 18:52:00,69.0,31.0,29.71,SW,222,3.0,12.0,24,0.00,,,0.00,,2013-10-16 01:52:00,
2013-10-15 19:22:00,72.0,-99.9,29.72,SW,226,9.0,11.0,-999,0.00,,,0.00,,2013-10-16 02:22:00,
2013-10-15 19:32:00,72.0,-99.9,29.72,SW,226,9.0,11.0,-999,0.00,,,0.00,,2013-10-16 02:32:00,
2013-10-15 19:43:00,72.0,-99.9,29.72,SW,226,9.0,11.0,-999,0.00,,,0.00,,2013-10-16 02:43:00,
2013-10-15 19:45:00,74.0,-99.9,29.73,NNW,344,2.0,11.0,-999,0.00,,,0.00,,2013-10-16 02:45:00,
2013-10-15 19:52:00,72.0,-99.9,29.72,SW,226,9.0,11.0,-999,0.00,,,0.00,,2013-10-16 02:52:00,
2013-10-15 20:11:00,74.0,-99.9,29.73,NNW,344,2.0,11.0,-999,0.00,,,0.00,,2013-10-16 03:11:00,
2013-10-15 20:22:00,74.0,-99.9,29.73,NNW,344,2.0,11.0,-999,0.00,,,0.00,,2013-10-16 03:22:00,
2013-10-15 20:34:00,74.0,-99.9,29.73,NNW,344,2.0,11.0,-999,0.00,,,0.00,,2013-10-16 03:34:00,
2013-10-15 20:55:00,70.0,29.0,29.74,North,8,9.0,12.0,22,0.00,,,0.00,,2013-10-16 03:55:00,
2013-10-15 21:04:00,70.0,29.0,29.74,North,8,9.0,12.0,22,0.00,,,0.00,,2013-10-16 04:04:00,
2013-10-15 21:13:00,70.0,29.0,29.74,North,8,9.0,12.0,22,0.00,,,0.00,,2013-10-16 04:13:00,
2013-10-15 21:24:00,70.0,29.0,29.74,North,8,9.0,12.0,22,0.00,,,0.00,,2013-10-16 04:24:00,
2013-10-15 21:43:00,70.0,29.0,29.74,NE,50,7.0,15.0,22,0.00,,,0.00,,2013-10-16 04:43:00,
2013-10-15 21:54:00,69.0,29.0,29.75,NE,39,10.0,16.0,22,0.00,,,0.00,,2013-10-16 04:54:00,
2013-10-15 22:22:00,70.0,28.0,29.76,NE,50,20.0,26.0,21,0.00,,,0.00,,2013-10-16 05:22:00,
2013-10-15 23:42:00,69.0,27.0,29.77,NE,47,21.0,25.0,21,0.00,,,0.00,,2013-10-16 06:42:00,
2013-10-15 23:52:00,69.0,27.0,29.77,ENE,68,22.0,31.0,21,0.00,,,0.00,,2013-10-16 06:52:00,